Flag for Canada Weather past 2 weeks in Edmonton, Alberta, Canada

Now
57 °F

Clear.


Feels Like: 57 °F
Forecast: 44 / 68 °F
Wind: 3 mph from East

Location: Edmonton Municipal

Current Time: Aug 29, 2014 at 12:15:15 AM

Latest Report: Aug 28, 2014 at 11:00 PM


Visibility: 9 mi

Pressure: 30.00 "Hg

Humidity: 55%

Dew point: 41 °F

Location of EdmontonLocation

Historic Weather in Edmonton — Graph

°F

Edmonton temperature yesterday

Maximum temperature yesterday: 68 °F (at 5:00 PM)
Minimum temperature yesterday: 55 °F (at 6:00 AM)
Average temperature yesterday: 60 °F

Past Weeks' High & Low Weather Summary

 TemperatureHumidityPressure
High84 °F (Aug 14, 3:00 PM)100% (Aug 14, 4:00 AM)30.41 "Hg (Aug 14, 4:00 AM)
Low41 °F (Aug 23, 7:00 AM)29% (Aug 14, 5:00 PM)29.67 "Hg (Aug 19, 6:00 PM)
Average64 °F66%29.99 "Hg
* Reported Aug 13 11:00 PM — Aug 28 11:00 PM, Edmonton, Weather by CustomWeather, © 2014

Note: Actual official high and low records may vary slightly from our data, if they occured in-between our weather recording intervals... More about our weather records

Advertising

Edmonton weather history for previous 24 hours

 ConditionsComfort  
Time TempWeatherWind HumidityBarometerVisibility
11:00 PM
Aug 28
57 °FClear.3 mph55%30.00 "Hg9 mi
10:00 PM61 °FClear.2 mph45%29.99 "Hg9 mi
9:00 PM61 °FPassing clouds.5 mph45%29.99 "Hg9 mi
8:00 PM63 °FSunny.5 mph45%29.98 "Hg9 mi
7:00 PM66 °FPassing clouds.9 mph37%29.97 "Hg9 mi
6:00 PM68 °FScattered clouds.6 mph35%29.97 "Hg9 mi
5:00 PM68 °FBroken clouds.6 mph35%29.97 "Hg9 mi
4:00 PM64 °FBroken clouds.6 mph52%29.98 "Hg9 mi
3:00 PM64 °FSunny.2 mph52%29.98 "Hg9 mi
2:00 PM63 °FSunny.7 mph52%29.99 "Hg9 mi
1:00 PM63 °FSunny.7 mph59%30.00 "Hg9 mi
12:00 PM57 °FSunny.8 mph63%30.00 "Hg9 mi
11:00 AM59 °FSunny.10 mph63%29.99 "Hg9 mi
10:00 AM57 °FPassing clouds.12 mph67%29.98 "Hg9 mi
9:00 AM57 °FSunny.12 mph67%29.97 "Hg9 mi
8:00 AM57 °FSunny.9 mph77%29.96 "Hg9 mi
7:00 AM55 °FClear.8 mph82%29.95 "Hg9 mi
6:00 AM55 °FClear.12 mph88%29.94 "Hg9 mi
5:00 AM57 °FClear.12 mph82%29.93 "Hg9 mi
4:00 AM57 °FPassing clouds.12 mph88%29.92 "Hg9 mi
3:52 AM57 °FPassing clouds.12 mph88%29.92 "Hg9 mi
3:00 AM59 °FLight rain. Passing clouds.12 mph82%29.92 "Hg9 mi
2:57 AM59 °FLight rain. Passing clouds.12 mph77%29.93 "Hg9 mi
2:00 AM59 °FPassing clouds.14 mph77%29.92 "Hg9 mi
1:00 AM59 °FPassing clouds.9 mph77%29.90 "Hg9 mi
12:00 AM59 °FLight rain. Overcast.10 mph82%29.90 "Hg9 mi
Weather by CustomWeather, © 2014

See weather overviewHow to use our weather pages